#Datum;Uhrzeit;WR;Pac;DaySum;Status;WR;Pac;DaySum;Status;Pdc1;Udc;Temp;WR;Pac;DaySum;Status;Pdc1;Udc;Temp;WR;Pac;DaySum;Status;Pdc1;Udc;Temp;WR;Pac;DaySum;Status;Pdc1;Pdc2;Udc1;Udc2;Temp;WR;Pac;DaySum;Status;Pdc1;Pdc2;Udc1;Udc2;Temp;WR;Pac;DaySum;Status;Pdc1;Udc;Temp;WR;Pac;DaySum;Status;Pdc1;Udc;Temp;WR;Pac;DaySum;Status;Pdc1;Udc;Temp
28.02.21;23:55:00;1;326;8969;0;2;0;26912;0;0;0;0;3;0;17355;0;0;0;0;4;0;25576;0;0;0;0;5;0;0;0;0;0;0;0;0;6;0;47583;0;0;0;0;0;0;7;0;41749;0;0;0;0;8;0;41024;0;0;0;0;9;0;22091;0;0;0;0
28.02.21;23:50:00;1;354;8943;0;2;0;26912;0;0;0;0;3;0;17355;0;0;0;0;4;0;25576;0;0;0;0;5;0;0;0;0;0;0;0;0;6;0;47583;0;0;0;0;0;0;7;0;41749;0;0;0;0;8;0;41024;0;0;0;0;9;0;22091;0;0;0;0
28.02.21;23:45:00;1;311;8913;0;2;0;26912;0;0;0;0;3;0;17355;0;0;0;0;4;0;25576;0;0;0;0;5;0;0;0;0;0;0;0;0;6;0;47583;0;0;0;0;0;0;7;0;41749;0;0;0;0;8;0;41024;0;0;0;0;9;0;22091;0;0;0;0
28.02.21;23:40:00;1;331;8887;0;2;0;26912;0;0;0;0;3;0;17355;0;0;0;0;4;0;25576;0;0;0;0;5;0;0;0;0;0;0;0;0;6;0;47583;0;0;0;0;0;0;7;0;41749;0;0;0;0;8;0;41024;0;0;0;0;9;0;22091;0;0;0;0
28.02.21;23:35:00;1;360;8860;0;2;0;26912;0;0;0;0;3;0;17355;0;0;0;0;4;0;25576;0;0;0;0;5;0;0;0;0;0;0;0;0;6;0;47583;0;0;0;0;0;0;7;0;41749;0;0;0;0;8;0;41024;0;0;0;0;9;0;22091;0;0;0;0
28.02.21;23:30:00;1;494;8830;0;2;0;26912;0;0;0;0;3;0;17355;0;0;0;0;4;0;25576;0;0;0;0;5;0;0;0;0;0;0;0;0;6;0;47583;0;0;0;0;0;0;7;0;41749;0;0;0;0;8;0;41024;0;0;0;0;9;0;22091;0;0;0;0
28.02.21;23:25:00;1;353;8793;0;2;0;26912;0;0;0;0;3;0;17355;0;0;0;0;4;0;25576;0;0;0;0;5;0;0;0;0;0;0;0;0;6;0;47583;0;0;0;0;0;0;7;0;41749;0;0;0;0;8;0;41024;0;0;0;0;9;0;22091;0;0;0;0
28.02.21;23:20:00;1;345;8763;0;2;0;26912;0;0;0;0;3;0;17355;0;0;0;0;4;0;25576;0;0;0;0;5;0;0;0;0;0;0;0;0;6;0;47583;0;0;0;0;0;0;7;0;41749;0;0;0;0;8;0;41024;0;0;0;0;9;0;22091;0;0;0;0
28.02.21;23:15:00;1;444;8734;0;2;0;26912;0;0;0;0;3;0;17355;0;0;0;0;4;0;25576;0;0;0;0;5;0;0;0;0;0;0;0;0;6;0;47583;0;0;0;0;0;0;7;0;41749;0;0;0;0;8;0;41024;0;0;0;0;9;0;22091;0;0;0;0
28.02.21;23:10:00;1;315;8706;0;2;0;26912;0;0;0;0;3;0;17355;0;0;0;0;4;0;25576;0;0;0;0;5;0;0;0;0;0;0;0;0;6;0;47583;0;0;0;0;0;0;7;0;41749;0;0;0;0;8;0;41024;0;0;0;0;9;0;22091;0;0;0;0
28.02.21;23:07:00;1;320;8690;0;2;0;26912;0;0;0;0;3;0;17355;0;0;0;0;4;0;25576;0;0;0;0;5;0;0;0;0;0;0;0;0;6;0;47583;0;0;0;0;0;0;7;0;41749;0;0;0;0;8;0;41024;0;0;0;0;9;0;22091;0;0;0;0
28.02.21;23:00:00;1;379;8622;0;2;0;26912;0;0;0;0;3;0;17355;0;0;0;0;4;0;25576;0;0;0;0;5;0;0;0;0;0;0;0;0;6;0;47583;0;0;0;0;0;0;7;0;41749;0;0;0;0;8;0;41024;0;0;0;0;9;0;22091;0;0;0;0
28.02.21;22:55:00;1;309;8593;0;2;0;26912;0;0;0;0;3;0;17355;0;0;0;0;4;0;25576;0;0;0;0;5;0;0;0;0;0;0;0;0;6;0;47583;2;0;0;0;0;0;7;0;41749;0;0;0;0;8;0;41024;0;0;0;0;9;0;22091;0;0;0;0
28.02.21;22:50:00;1;309;8567;0;2;0;26912;0;0;0;0;3;0;17355;0;0;0;0;4;0;25576;0;0;0;0;5;0;0;0;0;0;0;0;0;6;0;47583;2;0;0;0;0;0;7;0;41749;0;0;0;0;8;0;41024;0;0;0;0;9;0;22091;0;0;0;0
28.02.21;22:45:00;1;360;8540;0;2;0;26912;0;0;0;0;3;0;17355;0;0;0;0;4;0;25576;0;0;0;0;5;0;0;0;0;0;0;0;0;6;0;47583;2;0;0;0;0;0;7;0;41749;0;0;0;0;8;0;41024;0;0;0;0;9;0;22091;0;0;0;0
28.02.21;22:40:00;1;334;8510;0;2;0;26912;0;0;0;0;3;0;17355;0;0;0;0;4;0;25576;0;0;0;0;5;0;0;0;0;0;0;0;0;6;0;47583;2;0;0;0;0;0;7;0;41749;0;0;0;0;8;0;41024;0;0;0;0;9;0;22091;0;0;0;0
28.02.21;22:35:00;1;381;8482;0;2;0;26912;0;0;0;0;3;0;17355;0;0;0;0;4;0;25576;0;0;0;0;5;0;0;0;0;0;0;0;0;6;0;47583;2;0;0;0;0;0;7;0;41749;0;0;0;0;8;0;41024;0;0;0;0;9;0;22091;0;0;0;0
28.02.21;22:30:00;1;432;8451;0;2;0;26912;0;0;0;0;3;0;17355;0;0;0;0;4;0;25576;0;0;0;0;5;0;0;0;0;0;0;0;0;6;0;47583;2;0;0;0;0;0;7;0;41749;0;0;0;0;8;0;41024;0;0;0;0;9;0;22091;0;0;0;0
28.02.21;22:25:00;1;411;8415;0;2;0;26912;0;0;0;0;3;0;17355;0;0;0;0;4;0;25576;0;0;0;0;5;0;0;0;0;0;0;0;0;6;0;47583;2;0;0;0;0;0;7;0;41749;0;0;0;0;8;0;41024;0;0;0;0;9;0;22091;0;0;0;0
28.02.21;22:20:00;1;359;8381;0;2;0;26912;0;0;0;0;3;0;17355;0;0;0;0;4;0;25576;0;0;0;0;5;0;0;0;0;0;0;0;0;6;0;47583;2;0;0;0;0;0;7;0;41749;0;0;0;0;8;0;41024;0;0;0;0;9;0;22091;0;0;0;0
28.02.21;22:15:00;1;309;8349;0;2;0;26912;0;0;0;0;3;0;17355;0;0;0;0;4;0;25576;0;0;0;0;5;0;0;0;0;0;0;0;0;6;0;47583;2;0;0;0;0;0;7;0;41749;0;0;0;0;8;0;41024;0;0;0;0;9;0;22091;0;0;0;0
28.02.21;22:10:00;1;309;8323;0;2;0;26912;0;0;0;0;3;0;17355;0;0;0;0;4;0;25576;0;0;0;0;5;0;0;0;0;0;0;0;0;6;0;47583;2;0;0;0;0;0;7;0;41749;0;0;0;0;8;0;41024;0;0;0;0;9;0;22091;0;0;0;0
28.02.21;22:05:00;1;376;8298;0;2;0;26912;0;0;0;0;3;0;17355;0;0;0;0;4;0;25576;0;0;0;0;5;0;0;0;0;0;0;0;0;6;0;47583;2;0;0;0;0;0;7;0;41749;0;0;0;0;8;0;41024;0;0;0;0;9;0;22091;0;0;0;0
28.02.21;22:00:00;1;337;8268;0;2;0;26912;0;0;0;0;3;0;17355;0;0;0;0;4;0;25576;0;0;0;0;5;0;0;0;0;0;0;0;0;6;0;47583;2;0;0;0;0;0;7;0;41749;0;0;0;0;8;0;41024;0;0;0;0;9;0;22091;0;0;0;0
28.02.21;21:55:00;1;471;8233;0;2;0;26912;0;0;0;0;3;0;17355;0;0;0;0;4;0;25576;0;0;0;0;5;0;0;0;0;0;0;0;0;6;0;47583;2;0;0;0;0;0;7;0;41749;0;0;0;0;8;0;41024;0;0;0;0;9;0;22091;0;0;0;0
28.02.21;21:50:00;1;304;8184;0;2;0;26912;0;0;0;0;3;0;17355;0;0;0;0;4;0;25576;0;0;0;0;5;0;0;0;0;0;0;0;0;6;0;47583;2;0;0;0;0;0;7;0;41749;0;0;0;0;8;0;41024;0;0;0;0;9;0;22091;0;0;0;0
28.02.21;21:45:00;1;347;8159;0;2;0;26912;0;0;0;0;3;0;17355;0;0;0;0;4;0;25576;0;0;0;0;5;0;0;0;0;0;0;0;0;6;0;47583;2;0;0;0;0;0;7;0;41749;0;0;0;0;8;0;41024;0;0;0;0;9;0;22091;0;0;0;0
28.02.21;21:40:00;1;367;8130;0;2;0;26912;0;0;0;0;3;0;17355;0;0;0;0;4;0;25576;0;0;0;0;5;0;0;0;0;0;0;0;0;6;0;47583;2;0;0;0;0;0;7;0;41749;0;0;0;0;8;0;41024;0;0;0;0;9;0;22091;0;0;0;0
28.02.21;21:35:00;1;402;8099;0;2;0;26912;0;0;0;0;3;0;17355;0;0;0;0;4;0;25576;0;0;0;0;5;0;0;0;0;0;0;0;0;6;0;47583;2;0;0;0;0;0;7;0;41749;0;0;0;0;8;0;41024;0;0;0;0;9;0;22091;0;0;0;0
28.02.21;21:30:00;1;394;8065;0;2;0;26912;0;0;0;0;3;0;17355;0;0;0;0;4;0;25576;0;0;0;0;5;0;0;0;0;0;0;0;0;6;0;47583;2;0;0;0;0;0;7;0;41749;0;0;0;0;8;0;41024;0;0;0;0;9;0;22091;0;0;0;0
28.02.21;21:25:00;1;409;8033;0;2;0;26912;0;0;0;0;3;0;17355;0;0;0;0;4;0;25576;0;0;0;0;5;0;0;0;0;0;0;0;0;6;0;47583;2;0;0;0;0;0;7;0;41749;0;0;0;0;8;0;41024;0;0;0;0;9;0;22091;0;0;0;0
28.02.21;21:20:00;1;351;7998;0;2;0;26912;0;0;0;0;3;0;17355;0;0;0;0;4;0;25576;0;0;0;0;5;0;0;0;0;0;0;0;0;6;0;47583;2;0;0;0;0;0;7;0;41749;0;0;0;0;8;0;41024;0;0;0;0;9;0;22091;0;0;0;0
28.02.21;21:15:00;1;307;7968;0;2;0;26912;0;0;0;0;3;0;17355;0;0;0;0;4;0;25576;0;0;0;0;5;0;0;0;0;0;0;0;0;6;0;47583;2;0;0;0;0;0;7;0;41749;0;0;0;0;8;0;41024;0;0;0;0;9;0;22091;0;0;0;0
28.02.21;21:10:00;1;307;7943;0;2;0;26912;0;0;0;0;3;0;17355;0;0;0;0;4;0;25576;0;0;0;0;5;0;0;0;0;0;0;0;0;6;0;47583;2;0;0;0;0;0;7;0;41749;0;0;0;0;8;0;41024;0;0;0;0;9;0;22091;0;0;0;0
28.02.21;21:05:00;1;380;7916;0;2;0;26912;0;0;0;0;3;0;17355;0;0;0;0;4;0;25576;0;0;0;0;5;0;0;0;0;0;0;0;0;6;0;47583;2;0;0;0;0;0;7;0;41749;0;0;0;0;8;0;41024;0;0;0;0;9;0;22091;0;0;0;0
28.02.21;21:00:00;1;328;7886;0;2;0;26912;0;0;0;0;3;0;17355;0;0;0;0;4;0;25576;0;0;0;0;5;0;0;0;0;0;0;0;0;6;0;47583;2;0;0;0;0;0;7;0;41749;0;0;0;0;8;0;41024;0;0;0;0;9;0;22091;0;0;0;0
28.02.21;20:55:00;1;331;7858;0;2;0;26912;0;0;0;0;3;0;17355;0;0;0;0;4;0;25576;0;0;0;0;5;0;0;0;0;0;0;0;0;6;0;47583;2;0;0;0;0;0;7;0;41749;0;0;0;0;8;0;41024;0;0;0;0;9;0;22091;0;0;0;0
28.02.21;20:50:00;1;364;7831;0;2;0;26912;0;0;0;0;3;0;17355;0;0;0;0;4;0;25576;0;0;0;0;5;0;0;0;0;0;0;0;0;6;0;47583;2;0;0;0;0;0;7;0;41749;0;0;0;0;8;0;41024;0;0;0;0;9;0;22091;0;0;0;0
28.02.21;20:45:00;1;443;7800;0;2;0;26912;0;0;0;0;3;0;17355;0;0;0;0;4;0;25576;0;0;0;0;5;0;0;0;0;0;0;0;0;6;0;47583;2;0;0;0;0;0;7;0;41749;0;0;0;0;8;0;41024;0;0;0;0;9;0;22091;0;0;0;0
28.02.21;20:40:00;1;503;7764;0;2;0;26912;0;0;0;0;3;0;17355;0;0;0;0;4;0;25576;0;0;0;0;5;0;0;0;0;0;0;0;0;6;0;47583;2;0;0;0;0;0;7;0;41749;0;0;0;0;8;0;41024;0;0;0;0;9;0;22091;0;0;0;0
28.02.21;20:35:00;1;451;7722;0;2;0;26912;0;0;0;0;3;0;17355;0;0;0;0;4;0;25576;0;0;0;0;5;0;0;0;0;0;0;0;0;6;0;47583;2;0;0;0;0;0;7;0;41749;0;0;0;0;8;0;41024;0;0;0;0;9;0;22091;0;0;0;0
28.02.21;20:30:00;1;479;7685;0;2;0;26912;0;0;0;0;3;0;17355;0;0;0;0;4;0;25576;0;0;0;0;5;0;0;0;0;0;0;0;0;6;0;47583;2;0;0;0;0;0;7;0;41749;0;0;0;0;8;0;41024;0;0;0;0;9;0;22091;0;0;0;0
28.02.21;20:25:00;1;965;7646;0;2;0;26912;0;0;0;0;3;0;17355;0;0;0;0;4;0;25576;0;0;0;0;5;0;0;0;0;0;0;0;0;6;0;47583;2;0;0;0;0;0;7;0;41749;0;0;0;0;8;0;41024;0;0;0;0;9;0;22091;0;0;0;0
28.02.21;20:20:00;1;510;7574;0;2;0;26912;0;0;0;0;3;0;17355;0;0;0;0;4;0;25576;0;0;0;0;5;0;0;0;0;0;0;0;0;6;0;47583;2;0;0;0;0;0;7;0;41749;0;0;0;0;8;0;41024;0;0;0;0;9;0;22091;0;0;0;0
28.02.21;20:15:00;1;409;7530;0;2;0;26912;0;0;0;0;3;0;17355;0;0;0;0;4;0;25576;0;0;0;0;5;0;0;0;0;0;0;0;0;6;0;47583;2;0;0;0;0;0;7;0;41749;0;0;0;0;8;0;41024;0;0;0;0;9;0;22091;0;0;0;0
28.02.21;20:10:00;1;558;7496;0;2;0;26912;0;0;0;0;3;0;17355;0;0;0;0;4;0;25576;0;0;0;0;5;0;0;0;0;0;0;0;0;6;0;47583;2;0;0;0;0;0;7;0;41749;0;0;0;0;8;0;41024;0;0;0;0;9;0;22091;0;0;0;0
28.02.21;20:05:00;1;268;7459;0;2;0;26912;0;0;0;0;3;0;17355;0;0;0;0;4;0;25576;0;0;0;0;5;0;0;0;0;0;0;0;0;6;0;47583;2;0;0;0;0;0;7;0;41749;0;0;0;0;8;0;41024;0;0;0;0;9;0;22091;0;0;0;0
28.02.21;20:00:00;1;261;7435;0;2;0;26912;0;0;0;0;3;0;17355;0;0;0;0;4;0;25576;0;0;0;0;5;0;0;0;0;0;0;0;0;6;0;47583;2;0;0;0;0;0;7;0;41749;0;0;0;0;8;0;41024;0;0;0;0;9;0;22091;0;0;0;0
28.02.21;19:55:00;1;261;7413;0;2;0;26912;0;0;0;0;3;0;17355;0;0;0;0;4;0;25576;0;0;0;0;5;0;0;0;0;0;0;0;0;6;0;47583;2;0;0;0;0;0;7;0;41749;0;0;0;0;8;0;41024;0;0;0;0;9;0;22091;0;0;0;0
28.02.21;19:50:00;1;273;7391;0;2;0;26912;0;0;0;0;3;0;17355;0;0;0;0;4;0;25576;0;0;0;0;5;0;0;0;0;0;0;0;0;6;0;47583;2;0;0;0;0;0;7;0;41749;0;0;0;0;8;0;41024;0;0;0;0;9;0;22091;0;0;0;0
28.02.21;19:45:00;1;308;7369;0;2;0;26912;0;0;0;0;3;0;17355;0;0;0;0;4;0;25576;0;0;0;0;5;0;0;0;0;0;0;0;0;6;0;47583;2;0;0;0;0;0;7;0;41749;0;0;0;0;8;0;41024;0;0;0;0;9;0;22091;0;0;0;0
28.02.21;19:40:00;1;406;7343;0;2;0;26912;0;0;0;0;3;0;17355;0;0;0;0;4;0;25576;0;0;0;0;5;0;0;0;0;0;0;0;0;6;0;47583;2;0;0;0;0;0;7;0;41749;0;0;0;0;8;0;41024;0;0;0;0;9;0;22091;0;0;0;0
28.02.21;19:35:00;1;374;7310;0;2;0;26912;0;0;0;0;3;0;17355;0;0;0;0;4;0;25576;0;0;0;0;5;0;0;0;0;0;0;0;0;6;0;47583;0;0;0;0;0;0;7;0;41749;0;0;0;0;8;0;41024;0;0;0;0;9;0;22091;0;0;0;0
28.02.21;19:30:00;1;261;7280;0;2;0;26912;0;0;0;0;3;0;17355;0;0;0;0;4;0;25576;0;0;0;0;5;0;0;0;0;0;0;0;0;6;0;47583;2;0;0;0;0;0;7;0;41749;0;0;0;0;8;0;41024;0;0;0;0;9;0;22091;0;0;0;0
28.02.21;19:25:00;1;315;7258;0;2;0;26912;0;0;0;0;3;0;17355;0;0;0;0;4;0;25576;0;0;0;0;5;0;0;0;0;0;0;0;0;6;0;47583;2;0;0;0;0;0;7;0;41749;0;0;0;0;8;0;41024;0;0;0;0;9;0;22091;0;0;0;0
28.02.21;19:20:00;1;314;7231;0;2;0;26912;0;0;0;0;3;0;17355;0;0;0;0;4;0;25576;0;0;0;0;5;0;0;0;0;0;0;0;0;6;0;47583;2;0;0;0;0;0;7;0;41749;0;0;0;0;8;0;41024;0;0;0;0;9;0;22091;0;0;0;0
28.02.21;19:15:00;1;285;7205;0;2;0;26912;0;0;0;0;3;0;17355;0;0;0;0;4;0;25576;0;0;0;0;5;0;0;0;0;0;0;0;0;6;0;47583;2;0;0;0;0;0;7;0;41749;0;0;0;0;8;0;41024;0;0;0;0;9;0;22091;0;0;0;0
28.02.21;19:10:00;1;310;7181;0;2;0;26912;0;0;0;0;3;0;17355;0;0;0;0;4;0;25576;0;0;0;0;5;0;0;0;0;0;0;0;0;6;0;47583;2;0;0;0;0;0;7;0;41749;0;0;0;0;8;0;41024;0;0;0;0;9;0;22091;0;0;0;0
28.02.21;19:05:00;1;253;7155;0;2;0;26912;0;0;0;0;3;0;17355;0;0;0;0;4;0;25576;0;0;0;0;5;0;0;0;0;0;0;0;0;6;0;47583;2;0;0;0;0;0;7;0;41749;0;0;0;0;8;0;41024;0;0;0;0;9;0;22091;0;0;0;0
28.02.21;19:00:00;1;252;7134;0;2;0;26912;0;0;0;0;3;0;17355;0;0;0;0;4;0;25576;0;0;0;0;5;0;0;0;0;0;0;0;0;6;0;47583;2;0;0;0;0;0;7;0;41749;0;0;0;0;8;0;41024;0;0;0;0;9;0;22091;0;0;0;0
28.02.21;18:55:00;1;257;7113;0;2;0;26912;0;0;0;0;3;0;17355;0;0;0;0;4;0;25576;0;0;0;0;5;0;0;0;0;0;0;0;0;6;0;47583;2;0;0;0;0;0;7;0;41749;0;0;0;0;8;0;41024;0;0;0;0;9;0;22091;0;0;0;0
28.02.21;18:50:00;1;293;7092;0;2;0;26912;0;0;0;0;3;0;17355;0;0;0;0;4;0;25576;0;0;0;0;5;0;0;0;0;0;0;0;0;6;0;47583;2;0;0;0;0;0;7;0;41749;0;0;0;0;8;0;41024;0;0;0;0;9;0;22091;0;0;0;0
28.02.21;18:45:00;1;303;7067;0;2;0;26912;0;0;0;0;3;0;17355;0;0;0;0;4;0;25576;0;0;0;0;5;0;0;0;0;0;0;0;0;6;0;47583;2;0;0;0;0;0;7;0;41749;0;0;0;0;8;0;41024;0;0;0;0;9;0;22091;0;0;0;0
28.02.21;18:40:00;1;349;7042;0;2;0;26912;0;0;0;0;3;0;17355;0;0;0;0;4;0;25576;0;0;0;0;5;0;0;0;0;0;0;0;0;6;0;47583;2;0;0;0;0;0;7;0;41749;0;0;0;0;8;0;41024;0;0;0;0;9;0;22091;0;0;0;0
28.02.21;18:35:00;1;333;7012;0;2;0;26912;0;0;0;0;3;0;17355;0;0;0;0;4;0;25576;0;0;0;0;5;0;0;0;0;0;0;0;0;6;0;47583;2;0;0;0;0;0;7;0;41749;0;0;0;0;8;0;41024;0;0;0;0;9;0;22091;0;0;0;0
28.02.21;18:30:00;1;477;6983;0;2;0;26912;0;0;0;0;3;0;17355;0;0;0;0;4;0;25576;0;0;0;0;5;0;0;0;0;0;0;0;0;6;0;47583;2;0;0;0;0;0;7;0;41749;0;0;0;0;8;0;41024;0;0;0;0;9;0;22091;0;0;0;0
28.02.21;18:25:00;1;290;6930;0;2;0;26912;0;0;0;0;3;0;17355;0;0;0;0;4;0;25576;0;0;0;0;5;0;0;0;0;0;0;0;0;6;0;47583;2;0;0;0;0;0;7;0;41749;0;0;0;0;8;0;41024;0;0;0;0;9;0;22091;0;0;0;0
28.02.21;18:20:00;1;316;6906;0;2;0;26912;0;0;0;0;3;0;17355;0;0;71;5;4;0;25576;0;0;0;0;5;0;0;0;0;0;0;0;0;6;0;47583;2;0;0;0;0;0;7;0;41749;0;0;0;0;8;0;41024;0;0;0;0;9;0;22091;0;0;0;0
28.02.21;18:15:00;1;346;6880;0;2;0;26912;2;0;274;18;3;0;17355;6;0;308;20;4;0;25576;0;0;7;2;5;0;0;0;0;0;0;0;0;6;0;47583;2;0;0;0;0;0;7;0;41749;0;0;0;0;8;0;41024;0;0;0;0;9;0;22091;0;0;0;0
28.02.21;18:10:00;1;297;6852;0;2;0;26912;6;0;320;19;3;0;17355;6;0;390;21;4;0;25576;2;0;77;20;5;0;0;0;0;0;0;0;0;6;0;47583;2;0;0;0;0;0;7;0;41749;0;0;0;0;8;0;41024;0;0;0;0;9;0;22091;0;0;0;0
28.02.21;18:05:00;1;252;6826;0;2;0;26912;6;0;355;20;3;0;17355;6;1;437;21;4;0;25576;1;0;127;21;5;0;0;0;0;0;0;0;0;6;0;47583;2;5;6;406;170;27;7;0;41749;0;0;241;22;8;0;41024;0;0;236;21;9;0;22091;0;0;243;17
28.02.21;18:00:00;1;267;6805;0;2;0;26912;6;0;376;20;3;1;17355;4;1;462;22;4;0;25576;1;0;173;22;5;0;0;0;0;0;0;0;0;6;0;47583;23;3;6;424;302;27;7;0;41749;6;0;357;27;8;0;41024;6;0;354;26;9;0;22091;6;0;360;21
28.02.21;17:55:00;1;334;6783;0;2;0;26912;6;0;392;21;3;3;17355;3;11;440;22;4;0;25576;1;0;213;22;5;0;0;0;0;0;0;0;0;6;0;47583;23;6;2;388;569;28;7;0;41749;6;1;411;27;8;0;41024;6;1;410;26;9;0;22091;6;1;430;21
28.02.21;17:50:00;1;337;6754;0;2;0;26912;6;0;402;22;3;0;17355;6;6;493;23;4;0;25576;3;0;205;23;5;0;0;0;0;0;0;0;0;6;0;47583;23;7;2;429;583;29;7;0;41749;6;4;440;28;8;2;41024;6;2;437;27;9;1;22091;6;3;471;22
28.02.21;17:45:00;1;389;6726;0;2;122;26912;6;152;363;23;3;59;17355;6;81;440;23;4;57;25576;3;59;206;24;5;0;0;0;0;0;0;0;0;6;32;47583;1;20;16;508;373;29;7;1;41749;6;7;464;29;8;2;41024;6;4;465;27;9;2;22091;6;3;510;22
28.02.21;17:40:00;1;377;6695;0;2;336;26903;4;381;355;24;3;187;17351;4;229;410;24;4;248;25572;5;258;230;25;5;0;0;0;0;0;0;0;0;6;69;47580;4;35;23;458;265;30;7;24;41749;6;53;427;29;8;3;41024;6;7;461;28;9;0;22091;6;4;525;23
28.02.21;17:35:00;1;309;6666;0;2;499;26875;4;549;352;25;3;288;17335;4;329;419;25;4;408;25551;5;425;237;25;5;0;0;0;0;0;0;0;0;6;90;47574;4;50;36;458;265;30;7;214;41746;4;252;413;30;8;37;41024;6;68;428;29;9;6;22091;3;12;517;23
28.02.21;17:30:00;1;344;6641;0;2;626;26834;4;678;355;26;3;350;17311;4;394;423;25;4;531;25518;5;553;238;26;5;0;0;0;0;0;0;0;0;6;117;47566;4;68;47;458;265;30;7;410;41730;4;455;414;30;8;61;41021;4;99;426;29;9;4;22090;6;8;550;23
28.02.21;17:25:00;1;309;6612;0;2;768;26781;4;826;357;27;3;453;17282;4;503;432;26;4;631;25473;5;657;241;26;5;0;0;0;0;0;0;0;0;6;159;47556;4;81;52;458;265;30;7;564;41696;4;608;417;31;8;163;41016;4;195;364;30;9;5;22090;6;8;558;24
28.02.21;17:20:00;1;293;6585;0;2;883;26717;4;943;355;28;3;523;17244;4;575;430;26;4;511;25420;5;532;239;26;5;0;0;0;0;0;0;0;0;6;250;47542;4;120;122;458;421;31;7;752;41649;4;808;437;32;8;415;41002;4;458;386;31;9;6;22089;6;11;558;25
28.02.21;17:15:00;1;400;6560;0;2;1004;26643;4;1070;357;29;3;626;17200;4;682;429;27;4;633;25377;5;659;238;27;5;0;0;0;0;0;0;0;0;6;394;47520;4;192;224;559;564;31;7;1044;41586;4;1110;446;32;8;648;40967;4;699;467;31;9;6;22089;6;10;563;25
28.02.21;17:10:00;1;355;6526;0;2;1162;26560;4;1233;352;30;3;696;17148;4;752;424;27;4;899;25324;5;936;217;27;5;0;0;0;0;0;0;0;0;6;499;47487;4;242;269;595;569;31;7;1360;41499;4;1442;466;33;8;772;40913;4;833;479;32;9;9;22088;6;13;562;26
28.02.21;17:05:00;1;322;6496;0;2;1279;26462;4;1357;358;31;3;802;17089;4;865;440;27;4;977;25249;5;1018;219;28;5;0;0;0;0;0;0;0;0;6;632;47443;4;323;350;601;578;31;7;1657;41385;4;1751;484;33;8;882;40848;4;944;460;32;9;64;22087;4;95;480;27
28.02.21;17:00:00;1;324;6470;0;2;1445;26356;4;1522;355;32;3;898;17023;4;962;435;28;4;1044;25168;5;1087;220;28;5;0;0;0;0;0;0;0;0;6;762;47390;4;371;398;597;571;31;7;1837;41247;4;1938;484;34;8;936;40775;4;991;364;33;9;73;22082;4;108;489;28
28.02.21;16:55:00;1;334;6443;0;2;1583;26235;4;1674;364;33;3;979;16947;4;1045;428;28;4;1154;25081;5;1202;222;29;5;0;0;0;0;0;0;0;0;6;920;47325;4;460;475;608;578;31;7;2045;41093;4;2154;484;34;8;1438;40696;4;1512;366;34;9;82;22076;4;119;507;29
28.02.21;16:50:00;1;337;6415;0;2;1752;26103;4;1850;370;34;3;1044;16866;4;1113;431;29;4;1319;24985;5;1373;239;29;5;0;0;0;0;0;0;0;0;6;1064;47248;4;539;549;605;578;32;7;2207;40925;4;2327;483;35;8;1798;40577;4;1890;400;34;9;83;22069;4;113;419;29
28.02.21;16:45:00;1;368;6386;0;2;1885;25957;4;1989;380;34;3;1118;16779;4;1189;440;29;4;1489;24874;5;1551;229;30;5;0;0;0;0;0;0;0;0;6;1241;47157;4;637;633;603;577;32;7;2403;40739;4;2524;474;35;8;2152;40425;4;2259;440;35;9;110;22062;4;138;356;31
28.02.21;16:40:00;1;292;6354;0;2;2036;25801;4;2149;383;35;3;1178;16686;4;1250;438;29;4;1599;24751;5;1666;219;30;5;0;0;0;0;0;0;0;0;6;1383;47054;4;714;705;609;578;32;7;2544;40540;4;2679;488;35;8;2365;40248;4;2486;463;35;9;345;22053;4;383;355;32
28.02.21;16:35:00;1;293;6330;0;2;2151;25630;4;2271;381;36;3;1239;16587;4;1313;440;30;4;1665;24618;5;1734;214;30;5;0;0;0;0;0;0;0;0;6;1564;46937;4;794;799;604;579;32;7;2726;40327;4;2860;475;36;8;2630;40049;4;2765;466;36;9;904;22023;4;960;357;33
28.02.21;16:30:00;1;301;6305;0;2;2286;25451;4;2415;390;37;3;1270;16484;4;1343;428;30;4;1647;24478;5;1716;205;31;5;0;0;0;0;0;0;0;0;6;1718;46805;4;896;895;600;579;32;7;2872;40100;4;3018;476;36;8;2830;39830;4;2976;476;36;9;1102;21948;4;1167;375;34
28.02.21;16:25:00;1;343;6280;0;2;2409;25261;4;2545;393;38;3;1326;16378;4;1405;424;30;4;1648;24342;5;1716;221;31;5;0;0;0;0;0;0;0;0;6;1897;46660;4;973;975;601;578;33;7;3027;39860;4;3188;476;37;8;2998;39594;4;3157;473;37;9;1298;21857;4;1375;419;36
28.02.21;16:20:00;1;323;6251;0;2;2501;25060;4;2641;391;39;3;1373;16268;4;1453;421;31;4;1709;24204;5;1780;224;31;5;0;0;0;0;0;0;0;0;6;2064;46501;4;1067;1049;604;578;33;7;3173;39608;4;3332;471;37;8;3138;39344;4;3299;477;37;9;1458;21748;4;1547;450;37
28.02.21;16:15:00;1;336;6224;0;2;2693;24852;4;2844;394;40;3;1439;16153;4;1524;428;31;4;1732;24062;5;1804;204;32;5;0;0;0;0;0;0;0;0;6;2255;46328;4;1156;1122;601;577;33;7;3335;39344;4;3509;471;38;8;3300;39083;4;3471;469;38;9;1626;21626;4;1727;476;38
28.02.21;16:10:00;1;354;6195;0;2;2777;24627;4;2937;397;40;3;1476;16033;4;1561;419;31;4;1722;23918;5;1794;205;32;5;0;0;0;0;0;0;0;0;6;2409;46139;4;1216;1202;599;577;33;7;3451;39066;4;3627;471;38;8;3422;38813;4;3597;472;38;9;1774;21494;4;1883;495;38
28.02.21;16:05:00;1;383;6165;0;2;2901;24396;4;3065;394;41;3;1510;15910;4;1598;409;32;4;1729;23774;5;1801;200;33;5;0;0;0;0;0;0;0;0;6;2590;45937;4;1311;1293;597;574;33;7;3589;38779;4;3777;468;39;8;3567;38523;4;3748;467;38;9;1905;21343;4;2022;505;39
28.02.21;16:00:00;1;373;6134;0;2;2994;24154;4;3160;387;42;3;1593;15784;4;1681;412;32;4;1706;23630;5;1778;201;33;5;0;0;0;0;0;0;0;0;6;2751;45719;4;1415;1380;597;574;33;7;3719;38479;4;3910;469;39;8;3689;38226;4;3877;465;39;9;2015;21184;4;2136;514;40
28.02.21;15:55:00;1;340;6103;0;2;3115;23905;4;3285;386;42;3;1699;15651;4;1789;410;32;4;1833;23487;5;1909;222;34;5;0;0;0;0;0;0;0;0;6;2930;45488;4;1508;1474;594;574;34;7;3846;38168;4;4052;469;39;8;3824;37918;4;4019;466;39;9;2095;21018;4;2221;513;40
28.02.21;15:50:00;1;373;6075;0;2;3195;23645;4;3378;395;43;3;1740;15510;4;1831;411;33;4;1859;23335;5;1936;219;34;5;0;0;0;0;0;0;0;0;6;3082;45243;4;1583;1541;595;572;34;7;3984;37848;4;4191;471;40;8;3945;37599;4;4141;467;40;9;2162;20842;4;2292;517;41
28.02.21;15:45:00;1;314;6044;0;2;3316;23378;4;3499;392;43;3;1787;15364;4;1879;409;33;4;1858;23179;5;1935;214;35;5;0;0;0;0;0;0;0;0;6;3254;44985;4;1679;1624;593;571;34;7;4110;37516;4;4323;471;40;8;4076;37270;4;4283;469;40;9;2238;20661;4;2374;517;41
28.02.21;15:40:00;1;295;6017;0;2;3388;23102;4;3579;392;44;3;1822;15216;4;1920;415;33;4;1900;23025;5;1979;231;35;5;0;0;0;0;0;0;0;0;6;3406;44712;4;1751;1717;591;571;34;7;4216;37174;4;4436;467;41;8;4181;36931;4;4397;464;40;9;2298;20475;4;2436;511;42
28.02.21;15:35:00;1;295;5992;0;2;3450;22820;4;3644;392;44;3;1859;15064;4;1955;403;34;4;2056;22866;5;2141;233;36;5;0;0;0;0;0;0;0;0;6;3564;44427;4;1826;1776;589;569;34;7;4316;36822;4;4543;470;41;8;4293;36582;4;4515;461;41;9;2361;20283;4;2501;509;42
28.02.21;15:30:00;1;294;5968;0;2;3523;22533;4;3722;393;45;3;1938;14909;4;2042;422;34;4;2204;22695;5;2296;238;37;5;0;0;0;0;0;0;0;0;6;3703;44129;4;1914;1852;588;569;34;7;4414;36463;4;4641;467;41;8;4384;36225;4;4603;461;41;9;2408;20087;4;2551;518;42
28.02.21;15:25:00;1;335;5943;0;2;3591;22238;4;3796;394;45;3;1981;14747;4;2085;421;34;4;2348;22510;5;2445;237;38;5;0;0;0;0;0;0;0;0;6;3878;43818;4;1995;1943;589;568;35;7;4540;36095;4;4776;466;41;8;4509;35858;4;4736;459;41;9;2477;19885;4;2624;511;43
28.02.21;15:20:00;1;386;5915;0;2;3626;21939;4;3835;393;45;3;2010;14582;4;2113;415;35;4;2488;22315;5;2591;235;38;5;0;0;0;0;0;0;0;0;6;4008;43494;4;2098;2013;584;564;35;7;4649;35716;4;4887;456;42;8;4606;35483;4;4844;456;41;9;2536;19679;4;2688;510;43
28.02.21;15:15:00;1;304;5884;0;2;3716;21636;4;3925;389;46;3;2067;14414;4;2175;427;35;4;2626;22107;5;2735;231;39;5;0;0;0;0;0;0;0;0;6;4176;43159;4;2161;2097;587;567;35;7;4762;35329;4;5016;463;42;8;4738;35098;4;4984;460;42;9;2606;19468;4;2761;513;44
28.02.21;15:10:00;1;351;5858;0;2;3765;21327;4;3984;395;46;3;2134;14243;4;2245;425;36;4;2804;21889;5;2921;235;40;5;0;0;0;0;0;0;0;0;6;4315;42810;4;2245;2196;587;566;35;7;4880;34932;4;5133;465;42;8;4831;34704;4;5082;466;42;9;2654;19251;4;2815;503;44
28.02.21;15:05:00;1;395;5828;0;2;3830;21015;4;4049;392;46;3;2162;14065;4;2276;426;36;4;2960;21656;5;3083;236;40;5;0;0;0;0;0;0;0;0;6;4450;42451;4;2282;2218;584;565;35;7;4954;34526;4;5215;461;43;8;4899;34303;4;5160;459;42;9;2700;19030;4;2865;509;44
28.02.21;15:00:00;1;366;5795;0;2;3882;20696;4;4099;385;47;3;2183;13885;4;2299;430;36;4;3066;21410;5;3194;229;41;5;0;0;0;0;0;0;0;0;6;4580;42079;4;2368;2277;582;562;35;7;4992;34113;4;5250;455;43;8;4945;33895;4;5203;456;43;9;2732;18805;4;2895;504;45
28.02.21;14:55:00;1;339;5764;0;2;3936;20372;4;4157;388;47;3;2235;13703;4;2352;432;37;4;3197;21154;5;3330;233;41;5;0;0;0;0;0;0;0;0;6;4719;41696;4;2463;2384;578;560;35;7;5028;33697;4;5296;459;43;8;5013;33483;4;5272;452;43;9;2770;18580;4;2931;502;45
28.02.21;14:50:00;1;361;5735;0;2;3953;20044;4;4170;380;47;3;2290;13517;4;2403;432;37;4;3305;20889;5;3443;230;42;5;0;0;0;0;0;0;0;0;6;4821;41302;4;2489;2409;577;557;35;7;5099;33278;4;5369;449;43;8;5052;33065;4;5325;449;43;9;2803;18347;4;2968;497;45
28.02.21;14:45:00;1;293;5705;0;2;4007;19714;4;4229;381;47;3;2386;13326;4;2510;452;38;4;3395;20613;5;3536;232;42;5;0;0;0;0;0;0;0;0;6;4958;40898;4;2568;2472;576;557;36;7;5235;32853;4;5503;455;43;8;5193;32642;4;5461;452;43;9;2870;18112;4;3037;501;45
28.02.21;14:40:00;1;293;5680;0;2;4038;19381;4;4262;378;47;3;2515;13127;4;2645;468;38;4;3491;20330;5;3637;230;42;5;0;0;0;0;0;0;0;0;6;5072;40485;4;2617;2535;573;556;36;7;5316;32417;4;5597;454;43;8;5281;32211;4;5555;452;43;9;2920;17874;4;3090;501;46
28.02.21;14:35:00;1;292;5656;0;2;4098;19043;4;4326;386;47;3;2652;12917;4;2794;489;39;4;3594;20039;5;3744;228;43;5;0;0;0;0;0;0;0;0;6;5224;40061;4;2694;2621;576;558;36;7;5398;31978;4;5671;447;44;8;5335;31774;4;5618;455;43;9;2957;17632;4;3132;502;46
28.02.21;14:30:00;1;294;5632;0;2;4136;18702;4;4363;382;47;3;2695;12697;4;2841;484;39;4;3684;19739;5;3838;232;43;5;0;0;0;0;0;0;0;0;6;5331;39624;4;2776;2683;575;557;36;7;5458;31524;4;5749;453;44;8;5413;31325;4;5699;455;44;9;2998;17384;4;3175;505;46
28.02.21;14:25:00;1;350;5607;0;2;4161;18357;4;4386;378;47;3;2709;12472;4;2854;483;39;4;3743;19432;5;3899;230;43;5;0;0;0;0;0;0;0;0;6;5426;39179;4;2806;2718;573;552;36;7;5490;31070;4;5778;449;44;8;5446;30874;4;5736;449;44;9;3030;17136;4;3202;493;46
28.02.21;14:20:00;1;382;5578;0;2;4183;18011;4;4409;377;48;3;2732;12246;4;2875;484;39;4;3790;19121;5;3948;230;43;5;0;0;0;0;0;0;0;0;6;5538;38729;4;2884;2779;572;555;36;7;5530;30612;4;5829;453;44;8;5512;30422;4;5804;447;44;9;3060;16882;4;3237;497;46